Time,TemperatureF,DewpointF,PressureIn,WindDirection,WindDirectionDegrees,WindSpeedMPH,WindSpeedGustMPH,Humidity,HourlyPrecipIn,Conditions,Clouds,dailyrainin,SoftwareType,DateUTC
2013-07-05 00:05:00,73.0,59.0,29.68,SSE,155,0.0,7.0,62,0.00,,,0.00,weatherlink.com 1.10,2013-07-05 05:05:00,
2013-07-05 00:20:00,72.7,59.0,29.68,South,181,0.0,3.0,62,0.00,,,0.00,weatherlink.com 1.10,2013-07-05 05:20:00,
2013-07-05 00:35:00,72.4,59.0,29.68,SE,140,1.0,4.0,63,0.00,,,0.00,weatherlink.com 1.10,2013-07-05 05:35:00,
2013-07-05 00:50:00,71.9,59.0,29.68,SSE,165,0.0,2.0,64,0.00,,,0.00,weatherlink.com 1.10,2013-07-05 05:50:00,
2013-07-05 01:05:00,71.5,59.0,29.68,SE,142,0.0,4.0,65,0.00,,,0.00,weatherlink.com 1.10,2013-07-05 06:05:00,
2013-07-05 01:20:00,71.2,59.0,29.68,SE,134,0.0,6.0,66,0.00,,,0.00,weatherlink.com 1.10,2013-07-05 06:20:00,
2013-07-05 01:35:00,70.9,59.0,29.68,SSW,202,0.0,5.0,66,0.00,,,0.00,weatherlink.com 1.10,2013-07-05 06:35:00,
2013-07-05 01:50:00,70.8,59.0,29.68,SSW,200,0.0,7.0,67,0.00,,,0.00,weatherlink.com 1.10,2013-07-05 06:50:00,
2013-07-05 02:05:00,70.6,59.0,29.68,South,182,1.0,7.0,67,0.00,,,0.00,weatherlink.com 1.10,2013-07-05 07:05:00,
2013-07-05 02:20:00,70.3,59.0,29.67,SE,143,0.0,5.0,68,0.00,,,0.00,weatherlink.com 1.10,2013-07-05 07:20:00,
2013-07-05 02:35:00,70.0,59.0,29.68,South,174,0.0,3.0,69,0.00,,,0.00,weatherlink.com 1.10,2013-07-05 07:35:00,
2013-07-05 02:50:00,69.6,59.0,29.67,SSE,161,0.0,5.0,69,0.00,,,0.00,weatherlink.com 1.10,2013-07-05 07:50:00,
2013-07-05 03:05:00,69.3,59.0,29.68,SE,142,0.0,2.0,70,0.00,,,0.00,weatherlink.com 1.10,2013-07-05 08:05:00,
2013-07-05 03:20:00,69.2,59.0,29.68,SSE,148,1.0,3.0,70,0.00,,,0.00,weatherlink.com 1.10,2013-07-05 08:20:00,
2013-07-05 03:35:00,69.1,59.0,29.68,SSE,166,0.0,5.0,71,0.00,,,0.00,weatherlink.com 1.10,2013-07-05 08:35:00,
2013-07-05 03:50:00,69.1,59.0,29.67,SSE,159,0.0,3.0,70,0.00,,,0.00,weatherlink.com 1.10,2013-07-05 08:50:00,
2013-07-05 04:05:00,69.0,59.0,29.67,South,186,0.0,5.0,70,0.00,,,0.00,weatherlink.com 1.10,2013-07-05 09:05:00,
2013-07-05 04:35:00,68.6,59.0,29.67,South,180,0.0,5.0,72,0.00,,,0.00,weatherlink.com 1.10,2013-07-05 09:35:00,
2013-07-05 04:50:00,68.3,59.0,29.68,South,170,0.0,3.0,72,0.00,,,0.00,weatherlink.com 1.10,2013-07-05 09:50:00,
2013-07-05 05:05:00,68.1,59.0,29.68,SSW,209,0.0,3.0,73,0.00,,,0.00,weatherlink.com 1.10,2013-07-05 10:05:00,
2013-07-05 05:20:00,68.0,59.0,29.68,SW,225,0.0,3.0,73,0.00,,,0.00,weatherlink.com 1.10,2013-07-05 10:20:00,
2013-07-05 05:35:00,68.1,59.0,29.68,SSE,161,0.0,4.0,73,0.00,,,0.00,weatherlink.com 1.10,2013-07-05 10:35:00,
2013-07-05 06:05:00,67.5,59.0,29.68,SSW,198,3.0,3.0,74,0.00,,,0.00,weatherlink.com 1.10,2013-07-05 11:05:00,
2013-07-05 06:35:00,66.7,59.0,29.68,South,171,1.0,2.0,77,0.00,,,0.00,weatherlink.com 1.10,2013-07-05 11:35:00,
2013-07-05 07:05:00,66.7,60.0,29.68,SSW,196,0.0,1.0,78,0.00,,,0.00,weatherlink.com 1.10,2013-07-05 12:05:00,
2013-07-05 07:20:00,66.9,60.0,29.68,SSE,165,0.0,4.0,78,0.00,,,0.00,weatherlink.com 1.10,2013-07-05 12:20:00,
2013-07-05 07:35:00,67.3,60.0,29.68,SE,142,0.0,4.0,78,0.00,,,0.00,weatherlink.com 1.10,2013-07-05 12:35:00,
2013-07-05 07:50:00,67.7,61.0,29.68,SSE,165,0.0,4.0,78,0.00,,,0.00,weatherlink.com 1.10,2013-07-05 12:50:00,
2013-07-05 08:20:00,69.4,62.0,29.68,East,94,0.0,5.0,77,0.00,,,0.00,weatherlink.com 1.10,2013-07-05 13:20:00,
2013-07-05 08:35:00,70.8,63.0,29.68,SSW,202,0.0,6.0,75,0.00,,,0.00,weatherlink.com 1.10,2013-07-05 13:35:00,
2013-07-05 08:51:00,72.4,63.0,29.68,SSE,159,3.0,8.0,73,0.00,,,0.00,weatherlink.com 1.10,2013-07-05 13:51:00,
2013-07-05 09:06:00,73.9,64.0,29.69,South,187,0.0,7.0,70,0.00,,,0.00,weatherlink.com 1.10,2013-07-05 14:06:00,
2013-07-05 09:36:00,75.9,64.0,29.68,South,171,8.0,8.0,67,0.00,,,0.00,weatherlink.com 1.10,2013-07-05 14:36:00,
2013-07-05 09:51:00,76.3,64.0,29.67,SW,236,5.0,9.0,66,0.00,,,0.00,weatherlink.com 1.10,2013-07-05 14:51:00,
2013-07-05 10:06:00,75.9,64.0,29.67,ESE,121,2.0,7.0,66,0.00,,,0.00,weatherlink.com 1.10,2013-07-05 15:06:00,
2013-07-05 10:21:00,75.5,64.0,29.67,SW,236,0.0,7.0,67,0.00,,,0.00,weatherlink.com 1.10,2013-07-05 15:21:00,
2013-07-05 10:36:00,75.4,65.0,29.67,SSW,196,3.0,6.0,69,0.00,,,0.00,weatherlink.com 1.10,2013-07-05 15:36:00,
2013-07-05 10:51:00,75.8,65.0,29.67,SSW,209,0.0,6.0,70,0.00,,,0.00,weatherlink.com 1.10,2013-07-05 15:51:00,
2013-07-05 11:06:00,76.7,65.0,29.66,South,182,0.0,7.0,68,0.00,,,0.00,weatherlink.com 1.10,2013-07-05 16:06:00,
2013-07-05 11:21:00,77.4,66.0,29.67,ESE,121,0.0,7.0,67,0.00,,,0.00,weatherlink.com 1.10,2013-07-05 16:21:00,
2013-07-05 11:36:00,77.7,66.0,29.67,South,169,0.0,7.0,67,0.00,,,0.00,weatherlink.com 1.10,2013-07-05 16:36:00,
2013-07-05 11:51:00,77.9,66.0,29.67,SW,223,0.0,7.0,66,0.00,,,0.00,weatherlink.com 1.10,2013-07-05 16:51:00,
2013-07-05 12:06:00,77.7,65.0,29.66,South,185,0.0,5.0,66,0.00,,,0.00,weatherlink.com 1.10,2013-07-05 17:06:00,
2013-07-05 12:21:00,78.1,67.0,29.65,South,173,0.0,5.0,68,0.00,,,0.00,weatherlink.com 1.10,2013-07-05 17:21:00,
2013-07-05 12:36:00,78.6,66.0,29.65,South,172,1.0,5.0,66,0.00,,,0.00,weatherlink.com 1.10,2013-07-05 17:36:00,
2013-07-05 12:51:00,79.7,66.0,29.65,SSW,200,4.0,8.0,63,0.00,,,0.00,weatherlink.com 1.10,2013-07-05 17:51:00,
2013-07-05 13:06:00,80.5,66.0,29.65,WSW,242,1.0,10.0,61,0.00,,,0.00,weatherlink.com 1.10,2013-07-05 18:06:00,
2013-07-05 13:21:00,81.8,67.0,29.64,East,86,0.0,10.0,61,0.00,,,0.00,weatherlink.com 1.10,2013-07-05 18:21:00,
2013-07-05 13:36:00,82.3,66.0,29.64,SW,222,1.0,10.0,58,0.00,,,0.00,weatherlink.com 1.10,2013-07-05 18:36:00,
2013-07-05 13:51:00,81.7,65.0,29.64,SSW,209,1.0,8.0,58,0.00,,,0.00,weatherlink.com 1.10,2013-07-05 18:51:00,
2013-07-05 14:06:00,81.3,65.0,29.64,South,186,1.0,7.0,58,0.00,,,0.00,weatherlink.com 1.10,2013-07-05 19:06:00,
2013-07-05 14:21:00,81.2,65.0,29.63,WNW,294,6.0,8.0,58,0.00,,,0.00,weatherlink.com 1.10,2013-07-05 19:21:00,
2013-07-05 14:36:00,82.1,66.0,29.64,SSW,205,1.0,10.0,59,0.00,,,0.00,weatherlink.com 1.10,2013-07-05 19:36:00,
2013-07-05 14:51:00,83.2,67.0,29.63,SSW,201,0.0,8.0,59,0.00,,,0.00,weatherlink.com 1.10,2013-07-05 19:51:00,
2013-07-05 15:06:00,84.5,68.0,29.63,ESE,109,3.0,7.0,57,0.00,,,0.00,weatherlink.com 1.10,2013-07-05 20:06:00,
2013-07-05 15:21:00,84.7,67.0,29.63,SSW,211,2.0,10.0,55,0.00,,,0.00,weatherlink.com 1.10,2013-07-05 20:21:00,
2013-07-05 15:36:00,84.7,68.0,29.63,SW,224,2.0,8.0,58,0.00,,,0.00,weatherlink.com 1.10,2013-07-05 20:36:00,
2013-07-05 15:51:00,86.0,68.0,29.62,SW,229,1.0,7.0,56,0.00,,,0.00,weatherlink.com 1.10,2013-07-05 20:51:00,
2013-07-05 16:06:00,86.6,66.0,29.62,SE,127,4.0,12.0,51,0.00,,,0.00,weatherlink.com 1.10,2013-07-05 21:06:00,
2013-07-05 16:21:00,86.6,66.0,29.62,SW,222,2.0,10.0,51,0.00,,,0.00,weatherlink.com 1.10,2013-07-05 21:21:00,
2013-07-05 16:36:00,85.8,67.0,29.61,East,85,0.0,7.0,53,0.00,,,0.00,weatherlink.com 1.10,2013-07-05 21:36:00,
2013-07-05 16:51:00,85.7,67.0,29.62,SSW,213,0.0,4.0,54,0.00,,,0.00,weatherlink.com 1.10,2013-07-05 21:51:00,
2013-07-05 17:06:00,86.4,67.0,29.61,ESE,121,0.0,8.0,52,0.00,,,0.00,weatherlink.com 1.10,2013-07-05 22:06:00,
2013-07-05 17:22:00,86.2,67.0,29.61,South,191,0.0,10.0,53,0.00,,,0.00,weatherlink.com 1.10,2013-07-05 22:22:00,
2013-07-05 17:37:00,85.8,66.0,29.61,SE,143,0.0,10.0,52,0.00,,,0.00,weatherlink.com 1.10,2013-07-05 22:37:00,
2013-07-05 17:52:00,86.3,69.0,29.60,SSW,207,1.0,8.0,56,0.00,,,0.00,weatherlink.com 1.10,2013-07-05 22:52:00,
2013-07-05 18:07:00,85.8,68.0,29.60,SSW,205,1.0,7.0,55,0.00,,,0.00,weatherlink.com 1.10,2013-07-05 23:07:00,
2013-07-05 18:22:00,85.0,68.0,29.59,South,189,0.0,7.0,57,0.00,,,0.00,weatherlink.com 1.10,2013-07-05 23:22:00,
2013-07-05 18:37:00,85.8,69.0,29.59,SSE,161,0.0,5.0,57,0.00,,,0.00,weatherlink.com 1.10,2013-07-05 23:37:00,
2013-07-05 18:52:00,85.8,68.0,29.59,SE,142,3.0,8.0,55,0.00,,,0.00,weatherlink.com 1.10,2013-07-05 23:52:00,
2013-07-05 19:07:00,85.3,67.0,29.59,SSW,200,1.0,10.0,55,0.00,,,0.00,weatherlink.com 1.10,2013-07-06 00:07:00,
2013-07-05 19:22:00,85.3,68.0,29.59,SSW,211,1.0,7.0,56,0.00,,,0.00,weatherlink.com 1.10,2013-07-06 00:22:00,
2013-07-05 19:37:00,84.8,67.0,29.59,SSE,159,1.0,8.0,55,0.00,,,0.00,weatherlink.com 1.10,2013-07-06 00:37:00,
2013-07-05 19:52:00,83.9,66.0,29.60,SW,216,0.0,8.0,56,0.00,,,0.00,weatherlink.com 1.10,2013-07-06 00:52:00,
2013-07-05 20:07:00,83.3,66.0,29.60,ENE,76,0.0,2.0,57,0.00,,,0.00,weatherlink.com 1.10,2013-07-06 01:07:00,
2013-07-05 20:22:00,82.6,66.0,29.61,South,182,0.0,5.0,57,0.00,,,0.00,weatherlink.com 1.10,2013-07-06 01:22:00,
2013-07-05 20:37:00,82.0,66.0,29.61,SE,144,0.0,3.0,59,0.00,,,0.00,weatherlink.com 1.10,2013-07-06 01:37:00,
2013-07-05 20:52:00,81.3,66.0,29.60,SW,216,0.0,4.0,61,0.00,,,0.00,weatherlink.com 1.10,2013-07-06 01:52:00,
2013-07-05 21:07:00,80.6,68.0,29.60,ESE,120,0.0,2.0,65,0.00,,,0.00,weatherlink.com 1.10,2013-07-06 02:07:00,
2013-07-05 21:22:00,79.9,67.0,29.60,SSE,168,0.0,3.0,65,0.00,,,0.00,weatherlink.com 1.10,2013-07-06 02:22:00,
2013-07-05 21:37:00,79.4,67.0,29.61,SSE,167,0.0,4.0,66,0.00,,,0.00,weatherlink.com 1.10,2013-07-06 02:37:00,
2013-07-05 21:52:00,78.9,67.0,29.61,ESE,111,1.0,3.0,66,0.00,,,0.00,weatherlink.com 1.10,2013-07-06 02:52:00,
2013-07-05 22:07:00,78.7,67.0,29.62,SW,232,0.0,7.0,67,0.00,,,0.00,weatherlink.com 1.10,2013-07-06 03:07:00,
2013-07-05 22:22:00,78.2,66.0,29.62,SSE,159,0.0,4.0,67,0.00,,,0.00,weatherlink.com 1.10,2013-07-06 03:22:00,
2013-07-05 22:37:00,77.7,67.0,29.62,SSW,198,0.0,6.0,69,0.00,,,0.00,weatherlink.com 1.10,2013-07-06 03:37:00,
2013-07-05 22:52:00,77.2,66.0,29.62,South,185,1.0,7.0,69,0.00,,,0.00,weatherlink.com 1.10,2013-07-06 03:52:00,
2013-07-05 23:07:00,76.7,66.0,29.62,SSE,156,0.0,3.0,70,0.00,,,0.00,weatherlink.com 1.10,2013-07-06 04:07:00,
2013-07-05 23:22:00,76.2,66.0,29.62,South,171,1.0,5.0,70,0.00,,,0.00,weatherlink.com 1.10,2013-07-06 04:22:00,
2013-07-05 23:37:00,75.7,65.0,29.62,SSE,156,1.0,3.0,70,0.00,,,0.00,weatherlink.com 1.10,2013-07-06 04:37:00,
2013-07-05 23:52:00,75.4,65.0,29.62,SE,137,1.0,5.0,71,0.00,,,0.00,weatherlink.com 1.10,2013-07-06 04:52:00,